Wind_Speed
5 4 4 5 6 7 5 7 3 6 6 5 5 6 6 6 6 4 4 4 4 5 4 4 4 4 5 5 6 6 6 6 7 7 7 8 8 8 8 8 7 7 7 6 6 6 6 6 5
6 5 6 6 8 11 9 4 2 8 8 7 7 6 6 6 6 6 5 5 5 5 4 5 5 6 6 7 7 8 8 8 9 9 9 9 10 10 10 10 10 10 9 9 8 7 7 7 7
9 8 8 8 9 14 13 5 6 10 10 10 10 8 7 7 6 6 5 5 5 5 5 5 6 7 8 8 9 9 10 10 10 10 11 11 12 12 12 12 12 12 11 10 10 9 9 8 8
12 11 10 10 9 13 13 10 12 13 12 12 12 9 8 7 6 5 5 5 5 5 6 7 8 9 9 10 11 11 12 12 12 13 13 13 13 14 14 14 14 13 13 12 11 11 10 10 10
15 14 13 11 11 18 15 14 14 15 14 14 13 10 8 7 6 5 5 5 5 6 7 8 9 10 11 12 12 13 13 14 14 14 14 15 15 16 16 16 16 15 15 14 14 13 12 11 11
18 17 15 11 15 23 19 14 15 18 17 17 15 12 9 7 6 5 5 6 6 7 9 10 11 12 13 13 14 15 15 16 16 16 16 17 17 18 18 18 18 17 17 16 16 15 14 13 13
21 20 18 14 15 24 23 20 20 19 17 17 15 13 11 8 6 6 7 8 9 9 11 12 12 14 15 16 16 17 18 18 18 19 19 20 20 20 20 20 20 19 19 19 18 17 16 16 15
23 23 20 16 16 23 27 25 24 21 21 14 14 14 12 8 7 7 9 11 12 13 13 13 14 15 16 17 18 19 20 20 21 22 22 22 22 22 22 21 22 21 21 21 20 20 19 18 17
22 23 19 13 16 24 29 26 22 20 21 18 16 16 13 9 8 9 11 13 14 15 14 14 15 17 17 18 19 21 21 22 22 22 23 24 24 23 23 24 24 23 23 22 22 21 21 20 19
18 19 15 14 20 25 28 25 23 17 18 19 19 14 12 12 11 11 12 14 15 16 16 16 16 17 18 19 20 21 22 22 22 22 23 23 22 22 23 23 23 24 24 24 24 24 23 22 21
13 15 17 21 24 25 27 26 24 20 20 20 14 10 11 13 14 14 15 15 16 16 16 17 17 18 19 19 20 21 21 21 22 22 22 22 21 20 20 20 21 22 22 23 22 23 23 22 22
9 11 17 22 24 25 25 24 22 24 20 16 13 10 13 15 15 16 17 17 16 16 16 17 17 17 18 19 20 20 20 20 19 19 20 20 19 18 19 21 20 20 20 20 22 22 22 22 23
7 9 13 16 18 22 22 22 24 24 25 20 13 12 13 15 16 17 18 18 16 16 17 16 16 16 17 18 17 18 17 17 17 17 18 18 18 18 20 20 20 20 20 21 22 23 23 22 23
5 7 9 10 10 14 17 20 21 20 17 13 13 14 16 16 17 18 18 17 16 16 15 15 14 14 15 16 16 16 16 16 16 17 17 18 18 19 20 20 20 20 20 21 22 22 23 23 23
5 5 6 5 6 9 13 17 19 17 17 14 15 16 17 17 18 18 17 17 15 15 14 13 13 13 14 15 15 16 17 17 17 17 17 18 18 18 19 20 20 20 21 21 21 22 21 23 23
10 10 7 4 4 8 12 16 15 12 13 14 16 17 17 19 19 18 17 16 15 13 13 12 12 13 13 14 14 15 16 16 17 17 17 18 19 19 19 19 20 21 21 21 21 22 22 22 22
15 13 11 7 7 7 11 16 14 9 9 13 16 18 18 19 19 18 16 15 13 12 12 11 11 11 12 13 14 14 16 16 17 17 17 18 18 19 19 19 19 20 20 21 21 21 22 22 22
16 16 13 10 9 8 11 14 13 9 10 12 15 17 18 19 18 17 16 15 13 11 11 11 11 11 12 13 14 14 15 16 17 17 17 18 18 18 19 18 18 18 18 19 20 21 21 22 22
11 11 12 10 8 8 11 15 12 8 8 10 12 13 15 16 15 16 15 13 11 10 10 10 10 11 11 12 13 14 15 15 16 16 16 17 18 18 18 18 18 18 18 17 18 18 20 20 21
10 10 9 9 9 9 11 13 9 7 8 8 10 10 11 10 11 11 11 10 9 8 9 9 9 9 10 11 12 13 14 15 15 16 17 17 18 18 18 18 18 18 18 18 18 18 18 19 20
11 12 11 10 10 9 10 10 9 9 7 5 6 6 4 5 5 7 7 6 6 6 6 7 8 9 10 11 12 13 15 16 17 17 18 18 18 19 19 19 19 19 19 19 19 19 20 20 20
12 11 10 10 11 11 10 10 11 9 8 4 4 2 1 1 3 4 4 4 4 4 5 6 8 9 11 12 14 15 16 17 18 19 19 19 19 19 20 20 20 20 20 21 21 21 21 21 21
10 8 7 8 11 9 8 10 13 11 9 7 6 4 2 1 2 3 3 2 2 3 5 7 9 10 12 14 16 17 18 19 19 20 20 20 20 20 21 21 21 22 22 22 22 23 23 23 23
7 7 9 12 11 5 8 8 11 11 9 8 8 6 3 2 1 1 2 3 4 6 7 9 10 12 13 15 17 18 19 20 21 21 22 22 22 21 21 22 22 23 24 24 24 25 26 26 26
8 9 15 17 14 9 10 7 9 10 9 8 7 7 5 4 4 4 5 5 7 8 9 10 11 13 14 16 17 19 20 21 21 22 23 23 23 23 23 23 24 24 25 26 27 27 28 29 29
8 8 12 13 14 10 5 6 9 9 8 8 8 7 7 6 6 7 8 8 9 10 11 12 13 14 15 17 18 19 21 21 22 22 23 23 24 25 25 25 26 26 27 28 29 30 30 31 32
8 7 9 10 9 9 2 7 10 8 9 10 9 9 9 9 9 10 11 11 11 12 12 13 14 15 16 18 19 20 22 23 23 24 24 25 25 26 26 27 28 29 30 31 32 33 33 34 35
10 8 7 6 8 12 6 6 8 11 14 13 12 12 12 12 13 13 13 13 13 13 14 14 15 16 17 18 20 20 21 23 23 24 25 26 26 27 28 29 31 32 33 34 35 36 37 37 38
12 10 8 7 7 9 14 9 8 14 17 17 15 15 15 15 16 15 15 15 14 14 14 15 16 17 18 19 21 22 22 23 24 24 25 26 27 29 30 32 33 35 36 37 38 38 39 39 39
13 10 11 10 9 7 11 10 8 14 19 20 19 18 18 18 18 18 16 16 16 15 15 15 16 18 19 20 21 22 23 24 24 25 26 27 29 30 32 34 36 37 38 39 39 40 40 40 39
Wind_Direction
355 346 330 318 296 274 220 147 235 276 295 298 287 279 274 282 286 298 297 288 284 290 303 318 321 320 322 319 315 310 303 298 297 294 293 294 295 295 293 291 292 295 298 303 307 313 318 323 327
321 311 301 297 291 293 291 141 238 288 295 290 284 284 279 277 284 281 287 287 287 295 307 319 325 325 322 318 316 311 307 303 299 296 294 294 294 292 289 287 287 287 288 292 295 297 300 304 306
301 294 289 289 291 296 299 310 286 287 286 282 282 287 286 283 285 283 285 288 295 295 305 316 320 322 320 317 315 311 308 303 299 296 294 294 292 291 289 286 285 283 283 285 287 289 290 292 295
288 285 280 277 280 275 279 268 272 276 269 270 272 273 279 286 290 290 289 291 297 303 311 317 317 317 317 315 312 308 304 301 298 295 295 294 292 290 288 286 283 280 278 278 280 283 284 286 288
279 276 274 272 271 269 264 262 270 268 265 260 265 271 272 285 290 293 297 306 318 318 312 316 313 312 310 307 306 303 302 301 298 295 294 293 291 290 287 285 281 278 276 275 276 276 277 280 283
272 268 265 268 270 270 262 254 257 257 253 255 258 260 265 279 288 298 303 311 329 329 317 314 311 308 304 301 298 297 297 297 295 295 293 290 288 286 285 282 278 275 274 274 273 272 272 274 277
267 263 257 253 262 276 274 264 258 251 236 240 252 255 261 268 281 300 312 316 322 321 315 312 307 302 299 297 295 294 294 292 291 291 290 288 286 283 281 280 276 272 269 269 268 267 268 270 273
263 259 254 247 254 269 269 262 255 249 240 232 251 259 257 264 283 297 307 313 314 314 311 308 303 297 293 291 292 291 291 289 289 288 286 284 282 280 279 277 273 267 264 264 265 264 264 266 267
261 254 250 244 255 257 259 258 258 249 251 253 254 255 260 263 283 296 304 308 309 309 307 302 299 293 290 289 289 288 287 287 286 285 284 283 280 279 279 277 272 265 261 260 261 262 261 263 264
259 245 235 236 242 245 255 258 260 253 248 254 251 247 266 276 287 298 304 306 308 306 303 301 298 293 290 290 290 288 289 289 286 286 287 283 278 281 282 279 272 267 263 260 258 259 259 261 263
260 240 229 233 239 244 251 259 263 252 236 237 232 243 269 282 293 298 302 304 305 303 302 302 299 295 294 294 291 289 291 291 289 289 290 289 285 287 287 285 281 276 272 267 264 262 259 260 262
277 249 236 237 240 244 249 253 256 256 248 250 259 259 272 282 289 296 298 300 304 302 304 304 299 296 294 293 295 297 296 295 294 293 292 293 291 292 290 288 286 283 278 273 270 268 265 262 261
309 276 257 245 249 250 251 251 256 255 258 268 275 272 274 281 285 292 295 298 301 303 305 303 298 295 297 296 296 299 298 298 301 302 299 297 296 294 294 293 291 288 281 279 276 272 270 268 265
314 277 267 249 249 249 249 250 254 257 265 270 278 279 279 278 285 288 291 295 299 302 304 301 298 298 297 297 297 300 299 301 303 303 302 300 299 296 295 295 293 292 288 283 280 278 277 275 272
340 300 288 255 247 246 248 250 245 257 271 271 273 275 278 277 281 285 288 291 296 298 298 298 297 295 297 298 297 300 301 303 304 305 303 301 300 298 296 295 294 293 291 287 283 280 280 278 275
339 321 316 319 280 254 249 250 248 242 259 267 272 274 273 275 279 282 284 287 291 293 293 294 294 296 300 302 301 302 303 306 307 308 307 303 302 299 297 296 294 290 289 287 284 282 280 279 276
344 330 329 344 340 301 276 266 270 257 259 268 273 272 269 273 277 277 279 282 286 287 289 293 296 300 302 303 304 306 307 309 311 311 310 307 306 303 301 299 296 292 290 287 285 283 280 279 277
340 329 331 333 342 304 285 283 283 285 268 275 276 273 268 268 270 270 273 277 279 280 285 292 298 301 305 307 309 311 312 313 315 316 315 313 311 309 307 305 301 297 294 290 286 284 282 280 277
311 308 307 314 322 315 304 304 301 312 297 287 278 274 269 264 263 264 267 268 271 272 280 291 300 304 309 311 313 316 318 320 321 321 321 318 316 314 312 310 308 305 301 296 291 287 284 282 280
307 304 309 313 318 328 315 311 325 330 316 299 286 284 273 262 258 259 254 258 260 268 282 295 303 310 315 318 322 325 329 331 332 331 329 325 321 318 316 313 312 309 307 303 298 293 289 285 282
309 315 333 340 329 320 306 312 324 327 326 330 313 304 282 252 245 240 239 241 249 268 290 304 313 320 326 330 332 335 337 337 336 333 330 326 322 319 316 314 312 311 309 306 303 299 294 289 285
315 322 333 326 305 304 322 339 348 344 3 2 6 8 10 253 221 221 224 238 260 287 307 318 324 330 334 337 338 337 336 334 332 331 329 326 323 320 316 314 312 310 308 306 303 301 297 293 289
306 305 301 283 279 295 336 355 359 5 17 36 30 21 29 14 221 217 241 286 330 337 335 331 334 337 339 340 340 338 337 335 332 329 327 325 323 320 317 314 312 310 308 307 305 302 299 296 293
307 301 306 305 296 319 20 12 353 4 13 27 30 28 27 29 41 17 351 350 347 342 338 337 338 340 341 341 340 338 336 335 332 330 329 327 325 321 316 314 312 311 309 307 305 303 300 297 294
311 315 326 336 349 22 31 10 337 351 357 3 13 21 25 27 19 5 349 344 339 338 338 339 339 340 340 338 337 335 334 332 331 329 329 327 325 322 320 316 314 312 310 308 305 303 300 296 294
310 316 323 338 341 350 10 327 332 343 344 345 349 355 1 1 357 351 346 342 338 335 336 338 337 336 336 335 333 332 332 331 329 328 327 326 325 324 322 320 317 315 312 310 307 304 300 297 294
291 288 305 318 314 293 262 321 322 336 339 336 334 336 339 339 338 338 338 335 333 332 332 333 333 332 332 332 332 331 330 330 329 328 327 326 324 323 321 320 317 315 313 310 307 304 301 298 294
299 285 271 278 311 322 307 265 285 323 328 327 326 326 327 327 328 329 328 328 327 326 326 327 327 327 328 329 329 328 328 327 327 327 327 326 325 324 322 321 319 317 314 311 308 305 302 299 295
283 290 284 265 262 297 314 312 314 316 318 320 320 321 321 323 323 322 322 321 320 320 320 320 322 324 325 325 325 325 326 327 326 326 326 326 325 324 323 322 321 319 317 314 311 307 304 300 296
244 254 270 272 267 273 298 297 297 303 310 314 316 317 317 319 319 317 317 316 314 314 314 316 319 321 321 321 322 323 324 325 325 325 326 326 326 325 324 324 322 321 319 317 314 310 307 303 298
Height
5918 5917 5917 5916 5915 5912 5907 5906 5910 5909 5909 5909 5908 5908 5908 5908 5908 5910 5907 5907 5907 5907 5907 5907 5908 5908 5909 5909 5909 5909 5909 5908 5908 5908 5907 5907 5906 5906 5905 5905 5904 5904 5903 5903 5902 5902 5901 5901 5900
5917 5917 5916 5916 5914 5909 5902 5899 5906 5908 5908 5907 5907 5907 5907 5907 5907 5907 5906 5906 5907 5907 5907 5907 5907 5907 5907 5908 5908 5908 5908 5908 5907 5907 5906 5906 5906 5905 5904 5904 5903 5903 5902 5902 5901 5901 5900 5900 5900
5915 5915 5915 5915 5913 5909 5904 5902 5905 5906 5906 5906 5905 5906 5906 5906 5906 5906 5906 5906 5906 5906 5906 5906 5906 5906 5906 5907 5907 5907 5907 5906 5906 5906 5905 5905 5904 5904 5903 5903 5902 5902 5901 5901 5900 5900 5899 5899 5899
5913 5913 5913 5914 5912 5908 5906 5903 5904 5904 5904 5904 5903 5904 5904 5904 5905 5905 5904 5905 5905 5905 5905 5905 5905 5905 5905 5905 5905 5905 5905 5905 5904 5904 5904 5903 5903 5902 5902 5901 5901 5900 5899 5899 5899 5898 5898 5898 5897
5910 5911 5911 5911 5910 5907 5904 5902 5903 5902 5901 5900 5901 5902 5902 5903 5903 5903 5903 5903 5904 5904 5904 5904 5904 5904 5904 5904 5904 5903 5903 5903 5902 5902 5901 5901 5900 5900 5899 5899 5898 5898 5898 5897 5897 5897 5896 5896 5896
5907 5907 5908 5908 5908 5904 5900 5898 5900 5899 5899 5897 5898 5899 5900 5901 5901 5901 5901 5901 5902 5903 5902 5902 5902 5902 5902 5902 5902 5901 5901 5900 5900 5899 5899 5898 5898 5897 5897 5896 5896 5896 5895 5895 5895 5894 5894 5894 5894
5903 5903 5903 5905 5906 5903 5899 5897 5893 5893 5893 5893 5894 5896 5897 5898 5899 5899 5899 5899 5900 5900 5900 5900 5900 5900 5900 5899 5899 5899 5898 5898 5897 5896 5896 5895 5894 5894 5893 5893 5893 5892 5892 5892 5892 5892 5892 5892 5891
5897 5898 5899 5902 5904 5902 5897 5893 5889 5888 5887 5886 5890 5893 5894 5896 5897 5897 5897 5897 5897 5898 5898 5898 5898 5897 5897 5896 5896 5896 5895 5894 5894 5893 5892 5891 5890 5889 5889 5889 5889 5889 5888 5889 5889 5889 5889 5889 5889
5891 5894 5895 5900 5901 5897 5892 5889 5885 5884 5885 5883 5886 5889 5891 5893 5894 5894 5895 5895 5895 5895 5895 5895 5895 5894 5893 5893 5892 5892 5891 5890 5889 5888 5887 5886 5885 5885 5885 5884 5884 5884 5884 5884 5884 5885 5885 5885 5885
5886 5888 5892 5895 5894 5891 5886 5886 5883 5882 5881 5879 5880 5884 5889 5890 5891 5891 5892 5892 5892 5892 5891 5891 5891 5890 5890 5889 5889 5888 5887 5886 5885 5884 5882 5881 5880 5880 5880 5879 5878 5879 5879 5879 5880 5880 5881 5881 5881
5881 5884 5886 5886 5885 5885 5884 5883 5882 5876 5875 5873 5871 5879 5886 5888 5888 5888 5889 5889 5889 5889 5888 5888 5887 5886 5886 5885 5884 5883 5882 5881 5880 5879 5878 5876 5876 5875 5874 5874 5874 5874 5874 5874 5875 5875 5876 5876 5877
5878 5879 5880 5879 5880 5880 5880 5880 5877 5871 5869 5869 5871 5878 5883 5885 5885 5885 5886 5886 5886 5886 5885 5885 5884 5883 5882 5881 5880 5879 5878 5877 5876 5874 5874 5873 5872 5871 5871 5870 5870 5870 5869 5869 5869 5870 5870 5871 5871
5877 5877 5875 5875 5876 5877 5877 5877 5874 5870 5870 5872 5876 5879 5879 5881 5882 5882 5882 5883 5883 5883 5882 5882 5881 5880 5879 5878 5877 5876 5875 5874 5872 5871 5870 5869 5868 5867 5867 5866 5865 5865 5865 5865 5864 5864 5865 5865 5866
5876 5874 5873 5873 5872 5874 5875 5873 5871 5866 5865 5869 5873 5874 5875 5877 5879 5879 5879 5880 5880 5880 5879 5878 5878 5877 5876 5875 5874 5873 5872 5871 5870 5869 5867 5866 5865 5864 5863 5862 5861 5860 5860 5859 5859 5859 5859 5859 5860
5873 5871 5872 5871 5872 5872 5872 5870 5867 5865 5867 5869 5871 5872 5873 5874 5875 5876 5876 5877 5877 5877 5876 5876 5875 5875 5874 5873 5871 5870 5869 5868 5866 5865 5864 5862 5861 5860 5859 5858 5857 5856 5855 5855 5854 5854 5855 5854 5855
5874 5871 5871 5871 5871 5872 5871 5866 5863 5863 5867 5868 5869 5871 5872 5871 5872 5873 5874 5874 5874 5874 5873 5873 5873 5873 5872 5870 5869 5868 5866 5865 5863 5862 5861 5859 5857 5856 5855 5854 5853 5852 5851 5850 5850 5849 5850 5849 5849
5875 5872 5871 5871 5870 5871 5870 5866 5864 5863 5864 5865 5866 5867 5868 5868 5869 5870 5871 5871 5872 5872 5871 5871 5871 5870 5870 5868 5867 5866 5864 5862 5861 5859 5857 5855 5854 5852 5851 5850 5848 5847 5846 5846 5845 5845 5844 5844 5844
5877 5874 5871 5871 5871 5871 5868 5864 5864 5862 5863 5863 5863 5863 5864 5865 5866 5867 5867 5868 5869 5869 5870 5869 5869 5868 5867 5866 5865 5863 5862 5860 5858 5856 5854 5852 5850 5848 5847 5845 5844 5843 5842 5841 5840 5839 5839 5839 5839
5880 5876 5874 5872 5872 5870 5867 5863 5860 5860 5861 5861 5861 5860 5860 5861 5862 5864 5865 5866 5867 5867 5868 5868 5867 5866 5865 5864 5863 5861 5859 5857 5855 5853 5851 5849 5847 5845 5843 5842 5840 5839 5838 5837 5836 5835 5834 5834 5834
5879 5877 5875 5874 5871 5869 5866 5861 5859 5859 5859 5858 5859 5857 5857 5858 5859 5861 5862 5864 5865 5865 5866 5866 5865 5864 5863 5862 5860 5859 5857 5855 5852 5850 5848 5846 5844 5842 5840 5838 5837 5835 5834 5833 5832 5831 5830 5829 5829
5879 5877 5875 5874 5872 5870 5866 5863 5861 5858 5856 5856 5857 5857 5856 5857 5858 5859 5861 5862 5863 5864 5864 5864 5864 5863 5861 5860 5858 5856 5854 5852 5850 5848 5846 5843 5841 5839 5837 5835 5833 5832 5830 5829 5827 5826 5825 5825 5824
5879 5877 5875 5872 5870 5868 5866 5863 5861 5859 5857 5857 5858 5858 5858 5857 5858 5859 5860 5861 5862 5863 5863 5862 5862 5861 5859 5858 5856 5854 5852 5850 5847 5845 5843 5841 5838 5836 5834 5832 5830 5828 5826 5825 5823 5822 5820 5819 5818
5878 5876 5874 5870 5867 5865 5865 5863 5862 5859 5858 5859 5859 5858 5858 5857 5858 5859 5860 5861 5861 5861 5861 5861 5860 5858 5857 5855 5853 5851 5849 5847 5845 5842 5840 5838 5835 5833 5831 5828 5826 5824 5822 5820 5818 5817 5815 5814 5812
5877 5875 5873 5869 5865 5864 5865 5865 5864 5861 5861 5860 5860 5859 5858 5858 5858 5859 5860 5860 5860 5859 5859 5859 5857 5856 5854 5853 5851 5849 5847 5844 5842 5839 5837 5834 5832 5830 5827 5825 5822 5820 5818 5815 5813 5811 5809 5807 5806
5876 5874 5871 5866 5862 5863 5865 5866 5865 5864 5863 5862 5861 5861 5859 5859 5859 5859 5859 5859 5858 5858 5857 5856 5855 5854 5852 5851 5849 5847 5844 5842 5839 5836 5833 5831 5828 5826 5823 5820 5818 5815 5813 5810 5808 5805 5803 5801 5799
5875 5874 5873 5871 5868 5866 5866 5867 5866 5865 5864 5863 5862 5861 5861 5860 5859 5859 5858 5857 5857 5856 5855 5854 5853 5851 5850 5848 5846 5844 5842 5839 5836 5834 5831 5827 5824 5821 5818 5815 5813 5810 5807 5804 5801 5798 5796 5793 5791
5873 5873 5873 5871 5869 5867 5865 5865 5864 5864 5864 5863 5862 5862 5861 5860 5859 5857 5856 5856 5855 5854 5852 5851 5850 5849 5848 5846 5844 5841 5838 5836 5833 5830 5827 5824 5820 5817 5814 5811 5808 5804 5801 5797 5794 5791 5787 5784 5782
5872 5871 5871 5870 5869 5866 5863 5863 5863 5863 5863 5862 5862 5860 5860 5858 5857 5856 5854 5853 5852 5851 5850 5849 5848 5847 5845 5843 5841 5839 5836 5833 5830 5826 5823 5820 5816 5813 5809 5805 5801 5798 5794 5790 5786 5782 5778 5775 5771
5870 5870 5868 5869 5868 5867 5863 5862 5860 5861 5861 5860 5860 5859 5857 5856 5855 5854 5852 5851 5850 5849 5848 5846 5845 5843 5842 5840 5837 5835 5832 5829 5826 5823 5819 5815 5812 5808 5804 5799 5795 5790 5786 5781 5776 5772 5768 5764 5760
5865 5866 5867 5867 5866 5866 5865 5864 5860 5861 5859 5858 5857 5856 5855 5854 5852 5851 5850 5848 5847 5846 5845 5844 5842 5840 5838 5836 5834 5831 5828 5825 5822 5819 5815 5811 5807 5802 5798 5793 5788 5783 5777 5772 5767 5762 5757 5752 5748